STARLINK-37823, 69427

Orbit data source: Space-Track

STARLINK-37823, 69427 is a payload satellite owned by SpaceX/Seattle (US) in SSO that was launched on Sun, 07 Jun 2026 UTC via an FALCON 9 launch vehicle from the Air Force Western Test Range (AFWTR). Payload-class satellites include a variety of spacecraft equipped with specific instruments for various scientific and technological missions. These include communications satellites like Starlink; space stations such as the ISS; scientific satellites like the Hubble; Earth observation satellites from companies like Planet Labs, Umbra, and HawkEye 360; GPS; miniature CubeSats for education and research; and military/defense satellites.

Not visible in the next 10 days
Identifier
69427, 2026-126H
Orbit
SSO
Country
Flag of USUS
Related business
Manufacturer
SpaceX/Seattle
Mission
Operational spacecraft
Bus & Motor
STARLINK V2MO, Unknown motor
Mass
575 kg wet, ~530 kg dry
Launch date (UTC)
2026-06-07 (2 weeks ago)
Launch vehicle
FALCON 9
Launch site
Air Force Western Test Range (AFWTR)
Object type
Payload
Rocket body
Debris
Shape & HBR
Unknown
Radar Cross Section
RCS unknown

Expand to show TLE details & history
Last TLE update: 17 hours ago

TLE from 17 hours ago
0 STARLINK-37823
1 69427U 26126H   26171.13775423 -.00458108  00000-0 -26592-2 0  9998
2 69427  97.2824  31.3123 0001186 159.4149 200.7167 15.79625093  3210
Epoch: 2026-06-20T03:18Z
TLE epoch observation values (Epoch: 2026-06-20T03:18:21.965Z)
Latitude
0.00002°
Longitude
73.36409°
Altitude
335.421 km
Speed
7.707 km/s
True Right ascension
02h 05m 14s
True Declination
0° 00' 00"
Sunlit
Object was in daylight at epoch
Visualization orbit readout
Latitude
Unknown
Longitude
Unknown
Altitude
Unknown
Speed
Unknown
Apparent Right ascension
Unknown
Apparent Declination
Unknown
Sunlit
N/A
Visualization observer readout
Local Sidereal Time
07:15:07
Azimuth
Unknown
Elevation
Unknown
Doppler factor
Unknown
Orbital elements
Apogee altitude
329.179 km
Perigee altitude
327.588 km
Semi-major axis
6,706.521 km
Eccentricity
0.00012
Inclination
97.2824°
RAAN
31.3123°
Arg. of periapsis
159.4149°
True anomaly
200.71189°
Mean anomaly
200.7167°
Eccentric anomaly
200.7143°
Mean motion
3.95182 °/min
Orbital period
91.1 mins
BSTAR
-0.0026592
Loading maneuver chart data...
Computing Atmospheric mass density...
Loading historical data...
Loading historical data...
Loading historical data...
Loading historical data...
Loading historical data...
Loading historical data...
Loading historical data...

Documentation

Showing up to 5 results
|